Date String (YYYY-MM-DD hh:mm:ss) UTC,Instrument flags,absolute air pressure of the measurement (hPa),sample flow rate (lpm),inlet stack bypass flow (lpm),air temperature of the measurement (°C),ambient temperature measured by the external sensor (°C),aerosol sample conditioner tube jacket temperature (°C),OPC LED temperature (°C),internal box temperature (°C),relative humidity of the measurement (%),span deviation,mass concentration of particles derived from Lorenz-Mie calculation of OPC scattering (μg/m³),mass concentration of particles derived from Lorenz-Mie calculation of OPC scattering (μg/m³),mass concentration of particles derived from Lorenz-Mie calculation of OPC scattering (μg/m³)
DateTimeUTC,F1_M11,P_M11,Q1_M11,Q2_M11,T1_M11,T2_M11,T3_M11,T4_M11,T5_M11,U1_M11,ZSPAN_M11,X2_M11,X0_M11,X1_M11
2024-02-13 04:00:00,SystemResetWarning,0825.2,4.99,000.00,020.2,019.5,000.0,028.6,021.9,12.5,0000.0,0000.95,0001.74,0000.71
2024-02-13 04:01:00,SystemResetWarning,0825.2,5.00,000.00,020.2,019.5,000.0,028.6,021.9,12.4,0000.0,0000.95,0001.61,0000.71
2024-02-13 04:02:00,SystemResetWarning,0825.2,5.01,000.00,020.2,019.5,000.0,028.6,021.8,12.6,0000.0,0000.97,0001.75,0000.72
2024-02-13 04:03:00,SystemResetWarning,0825.2,5.00,000.00,020.1,019.5,000.0,028.6,021.8,12.7,0000.0,0000.98,0002.10,0000.72
2024-02-13 04:04:00,SystemResetWarning,0825.1,5.00,000.00,020.1,019.4,000.0,028.6,021.8,12.4,0000.0,0000.97,0002.13,0000.72
2024-02-13 04:05:00,SystemResetWarning,0825.2,5.00,000.00,020.1,019.4,000.0,028.5,021.8,12.3,0000.0,0000.97,0002.07,0000.72
2024-02-13 04:06:00,SystemResetWarning,0825.2,5.00,000.00,020.1,019.4,000.0,028.5,021.8,12.4,0000.0,0000.97,0002.80,0000.72
2024-02-13 04:07:00,SystemResetWarning,0825.3,5.00,000.00,020.1,019.4,000.0,028.5,021.8,12.4,0000.0,0000.96,0003.76,0000.71
2024-02-13 04:08:00,SystemResetWarning,0825.2,4.99,000.00,020.1,019.4,000.0,028.5,021.8,12.4,0000.0,0000.97,0003.80,0000.70
2024-02-13 04:09:00,SystemResetWarning,0825.2,5.00,000.00,020.1,019.4,000.0,028.5,021.8,12.2,0000.0,0000.99,0003.86,0000.69
2024-02-13 04:10:00,SystemResetWarning,0825.2,4.99,000.00,020.1,019.4,000.0,028.5,021.8,12.3,0000.0,0000.98,0003.84,0000.69
2024-02-13 04:11:00,SystemResetWarning,0825.2,5.00,000.00,020.1,019.4,000.0,028.5,021.8,12.2,0000.0,0000.98,0003.84,0000.68
2024-02-13 04:12:00,SystemResetWarning,0825.2,5.00,000.00,020.1,019.4,000.0,028.5,021.8,12.2,0000.0,0000.95,0003.78,0000.67
2024-02-13 04:13:00,SystemResetWarning,0825.2,5.01,000.00,020.1,019.4,000.0,028.5,021.8,12.3,0000.0,0000.91,0003.59,0000.66
2024-02-13 04:14:00,SystemResetWarning,0825.2,5.01,000.00,020.0,019.4,000.0,028.5,021.7,12.3,0000.0,0000.88,0003.22,0000.64
2024-02-13 04:15:00,SystemResetWarning,0825.2,5.01,000.00,020.0,019.4,000.0,028.5,021.7,12.3,0000.0,0000.86,0003.08,0000.65
2024-02-13 04:16:00,SystemResetWarning,0825.2,5.00,000.00,020.0,019.4,000.0,028.4,021.7,12.5,0000.0,0000.87,0003.12,0000.65
2024-02-13 04:17:00,SystemResetWarning,0825.1,4.99,000.00,020.0,019.4,000.0,028.4,021.7,12.2,0000.0,0000.88,0002.38,0000.64
2024-02-13 04:18:00,SystemResetWarning,0825.2,4.99,000.00,020.0,019.4,000.0,028.4,021.7,12.2,0000.0,0000.88,0001.46,0000.64
2024-02-13 04:19:00,SystemResetWarning,0825.2,5.00,000.00,020.0,019.4,000.0,028.4,021.7,12.3,0000.0,0000.88,0001.41,0000.65
2024-02-13 04:20:00,SystemResetWarning,0825.2,5.00,000.00,020.0,019.4,000.0,028.4,021.7,12.4,0000.0,0000.90,0001.36,0000.65
2024-02-13 04:21:00,SystemResetWarning,0825.2,5.00,000.00,020.0,019.4,000.0,028.4,021.7,12.4,0000.0,0000.88,0001.32,0000.65
2024-02-13 04:22:00,SystemResetWarning,0825.2,5.01,000.00,020.0,019.4,000.0,028.4,021.7,12.4,0000.0,0000.88,0001.29,0000.65
2024-02-13 04:23:00,SystemResetWarning,0825.2,5.01,000.00,020.0,019.4,000.0,028.4,021.7,12.3,0000.0,0000.89,0001.32,0000.66
2024-02-13 04:24:00,SystemResetWarning,0825.2,5.00,000.00,020.0,019.3,000.0,028.4,021.6,12.3,0000.0,0000.91,0001.39,0000.65
2024-02-13 04:25:00,SystemResetWarning,0825.2,5.00,000.00,020.0,019.3,000.0,028.4,021.6,12.4,0000.0,0000.94,0001.49,0000.66
2024-02-13 04:26:00,SystemResetWarning,0825.1,5.00,000.00,019.9,019.3,000.0,028.4,021.6,12.4,0000.0,0000.96,0001.56,0000.66
2024-02-13 04:27:00,SystemResetWarning,0825.1,5.00,000.00,019.9,019.3,000.0,028.3,021.6,12.4,0000.0,0000.93,0001.51,0000.66
2024-02-13 04:28:00,SystemResetWarning,0825.1,5.00,000.00,019.9,019.3,000.0,028.3,021.6,12.3,0000.0,0000.95,0001.54,0000.67
2024-02-13 04:29:00,SystemResetWarning,0825.2,5.00,000.00,019.9,019.3,000.0,028.3,021.6,12.3,0000.0,0000.94,0001.52,0000.66
2024-02-13 04:30:00,SystemResetWarning,0825.1,5.00,000.00,019.9,019.3,000.0,028.3,021.6,12.1,0000.0,0000.92,0001.50,0000.66
2024-02-13 04:31:00,SystemResetWarning,0825.1,4.99,000.00,019.9,019.2,000.0,028.3,021.6,11.9,0000.0,0000.89,0001.42,0000.67
2024-02-13 04:32:00,SystemResetWarning,0825.1,4.99,000.00,019.9,019.2,000.0,028.3,021.5,11.8,0000.0,0000.88,0001.39,0000.67
2024-02-13 04:33:00,SystemResetWarning,0825.1,5.00,000.00,019.9,019.2,000.0,028.3,021.5,11.7,0000.0,0000.88,0001.37,0000.67
2024-02-13 04:34:00,SystemResetWarning,0825.1,5.01,000.00,019.9,019.2,000.0,028.3,021.5,12.0,0000.0,0000.87,0001.33,0000.67
2024-02-13 04:35:00,SystemResetWarning,0825.1,5.01,000.00,019.9,019.2,000.0,028.2,021.5,12.1,0000.0,0000.89,0001.34,0000.67
2024-02-13 04:36:00,SystemResetWarning,0825.1,5.00,000.00,019.8,019.2,000.0,028.2,021.5,12.0,0000.0,0000.86,0001.31,0000.67
2024-02-13 04:37:00,SystemResetWarning,0825.1,4.99,000.00,019.8,019.2,000.0,028.2,021.5,12.1,0000.0,0000.86,0001.29,0000.66
2024-02-13 04:38:00,SystemResetWarning,0825.1,5.00,000.00,019.8,019.2,000.0,028.2,021.5,12.0,0000.0,0000.87,0001.32,0000.67
2024-02-13 04:39:00,SystemResetWarning,0825.0,5.00,000.00,019.8,019.1,000.0,028.2,021.5,12.0,0000.0,0000.85,0001.34,0000.66
2024-02-13 04:40:00,SystemResetWarning,0825.0,5.00,000.00,019.8,019.1,000.0,028.2,021.5,11.7,0000.0,0000.86,0001.45,0000.65
2024-02-13 04:41:00,SystemResetWarning,0825.0,5.01,000.00,019.8,019.1,000.0,028.2,021.4,11.8,0000.0,0000.91,0001.58,0000.66
2024-02-13 04:42:00,SystemResetWarning,0825.0,5.01,000.00,019.8,019.1,000.0,028.1,021.5,11.7,0000.0,0000.94,0001.98,0000.66
2024-02-13 04:43:00,SystemResetWarning,0825.0,5.01,000.00,019.8,019.1,000.0,028.1,021.4,11.7,0000.0,0000.95,0002.00,0000.67
2024-02-13 04:44:00,SystemResetWarning,0825.0,5.00,000.00,019.8,019.1,000.0,028.1,021.4,11.9,0000.0,0000.98,0002.08,0000.67
2024-02-13 04:45:00,SystemResetWarning,0824.9,4.99,000.00,019.8,019.1,000.0,028.1,021.4,11.9,0000.0,0000.98,0002.08,0000.67
2024-02-13 04:46:00,SystemResetWarning,0824.9,4.99,000.00,019.8,019.1,000.0,028.1,021.4,11.9,0000.0,0000.97,0002.10,0000.67
2024-02-13 04:47:00,SystemResetWarning,0824.9,5.00,000.00,019.7,019.1,000.0,028.1,021.4,11.6,0000.0,0001.02,0002.20,0000.66
2024-02-13 04:48:00,SystemResetWarning,0824.9,5.00,000.00,019.7,019.0,000.0,028.1,021.5,11.3,0000.0,0001.01,0002.19,0000.66
2024-02-13 04:49:00,SystemResetWarning,0824.9,5.00,000.00,019.7,019.0,000.0,028.1,021.4,11.6,0000.0,0001.00,0002.13,0000.66
2024-02-13 04:50:00,SystemResetWarning,0824.9,5.00,000.00,019.7,019.0,000.0,028.1,021.4,11.6,0000.0,0001.01,0002.07,0000.67
2024-02-13 04:51:00,SystemResetWarning,0824.8,5.00,000.00,019.7,019.0,000.0,028.1,021.4,11.5,0000.0,0001.00,0001.95,0000.67
2024-02-13 04:52:00,SystemResetWarning,0824.8,5.00,000.00,019.7,019.0,000.0,028.0,021.4,11.3,0000.0,0000.99,0001.94,0000.67
2024-02-13 04:53:00,SystemResetWarning,0824.8,5.00,000.00,019.7,019.0,000.0,028.0,021.3,11.5,0000.0,0001.01,0001.69,0000.66
2024-02-13 04:54:00,SystemResetWarning,0824.7,5.00,000.00,019.7,019.0,000.0,028.0,021.3,11.5,0000.0,0001.03,0001.75,0000.65
2024-02-13 04:55:00,SystemResetWarning,0824.7,5.00,000.00,019.7,018.9,000.0,028.0,021.3,11.2,0000.0,0001.01,0001.73,0000.66
2024-02-13 04:56:00,SystemResetWarning,0824.7,5.00,000.00,019.7,018.9,000.0,028.0,021.3,11.4,0000.0,0001.02,0001.80,0000.66
2024-02-13 04:57:00,SystemResetWarning,0824.8,5.00,000.00,019.7,018.9,000.0,028.0,021.3,11.2,0000.0,0001.02,0001.78,0000.67
2024-02-13 04:58:00,SystemResetWarning,0824.8,5.00,000.00,019.6,018.9,000.0,028.0,021.3,11.2,0000.0,0000.97,0001.63,0000.67
2024-02-13 04:59:00,SystemResetWarning,0824.8,5.00,000.00,019.6,018.9,000.0,028.0,021.3,11.4,0000.0,0001.00,0001.73,0000.67
